Date String (YYYY-MM-DD hh:mm:ss) UTC,Instrument flags,absolute air pressure of the measurement (hPa),sample flow rate (lpm),inlet stack bypass flow (lpm),air temperature of the measurement (°C),ambient temperature measured by the external sensor (°C),aerosol sample conditioner tube jacket temperature (°C),OPC LED temperature (°C),internal box temperature (°C),relative humidity of the measurement (%),span deviation,mass concentration of particles derived from Lorenz-Mie calculation of OPC scattering (μg/m³),mass concentration of particles derived from Lorenz-Mie calculation of OPC scattering (μg/m³),mass concentration of particles derived from Lorenz-Mie calculation of OPC scattering (μg/m³)
DateTimeUTC,F1_M11,P_M11,Q1_M11,Q2_M11,T1_M11,T2_M11,T3_M11,T4_M11,T5_M11,U1_M11,ZSPAN_M11,X0_M11,X2_M11,X1_M11
2024-05-12 17:00:00,SystemResetWarning,0825.7,5.01,000.00,025.7,025.0,000.0,034.2,027.5,027.0,0000.0,0012.94,0005.95,0005.09
2024-05-12 17:01:00,SystemResetWarning,0825.7,5.00,000.00,025.7,025.0,000.0,034.2,027.4,027.0,0000.0,0012.72,0005.88,0005.05
2024-05-12 17:02:00,SystemResetWarning,0825.7,4.99,000.00,025.7,024.9,000.0,034.2,027.4,026.9,0000.0,0012.38,0005.86,0005.02
2024-05-12 17:03:00,SystemResetWarning,0825.7,5.00,000.00,025.7,024.9,000.0,034.2,027.4,027.7,0000.0,0012.14,0005.86,0004.97
2024-05-12 17:04:00,SystemResetWarning,0825.7,5.00,000.00,025.7,024.9,000.0,034.1,027.4,027.9,0000.0,0011.78,0005.82,0004.93
2024-05-12 17:05:00,SystemResetWarning,0825.7,5.01,000.00,025.7,024.9,000.0,034.1,027.3,026.6,0000.0,0011.76,0005.77,0004.88
2024-05-12 17:06:00,SystemResetWarning,0825.7,5.01,000.00,025.6,024.9,000.0,034.1,027.3,027.4,0000.0,0011.57,0005.70,0004.84
2024-05-12 17:07:00,SystemResetWarning,0825.8,5.00,000.00,025.6,024.9,000.0,034.1,027.3,027.7,0000.0,0011.62,0005.64,0004.81
2024-05-12 17:08:00,SystemResetWarning,0825.8,5.00,000.00,025.6,024.9,000.0,034.1,027.3,027.2,0000.0,0011.59,0005.58,0004.78
2024-05-12 17:09:00,SystemResetWarning,0825.9,5.00,000.00,025.6,024.8,000.0,034.1,027.3,028.1,0000.0,0011.90,0005.58,0004.74
2024-05-12 17:10:00,SystemResetWarning,0825.9,4.98,000.00,025.6,024.9,000.0,034.1,027.3,028.2,0000.0,0011.37,0005.57,0004.71
2024-05-12 17:11:00,SystemResetWarning,0825.9,5.00,000.00,025.6,024.8,000.0,034.1,027.2,027.8,0000.0,0010.77,0005.57,0004.70
2024-05-12 17:12:00,SystemResetWarning,0825.9,5.00,000.00,025.5,024.8,000.0,034.0,027.2,027.0,0000.0,0010.89,0005.56,0004.68
2024-05-12 17:13:00,SystemResetWarning,0825.9,5.00,000.00,025.5,024.8,000.0,034.0,027.2,027.0,0000.0,0011.42,0005.54,0004.67
2024-05-12 17:14:00,SystemResetWarning,0825.9,5.00,000.00,025.5,024.8,000.0,034.0,027.3,027.3,0000.0,0011.02,0005.48,0004.66
2024-05-12 17:15:00,SystemResetWarning,0825.9,5.00,000.00,025.5,024.8,000.0,034.0,027.2,027.3,0000.0,0010.79,0005.45,0004.66
2024-05-12 17:16:00,SystemResetWarning,0825.9,4.99,000.00,025.5,024.8,000.0,034.0,027.2,027.9,0000.0,0010.63,0005.41,0004.64
2024-05-12 17:17:00,SystemResetWarning,0825.9,4.99,000.00,025.5,024.8,000.0,034.0,027.2,028.4,0000.0,0010.72,0005.41,0004.62
2024-05-12 17:18:00,SystemResetWarning,0825.9,5.00,000.00,025.5,024.8,000.0,034.0,027.2,028.6,0000.0,0010.54,0005.42,0004.61
2024-05-12 17:19:00,SystemResetWarning,0825.9,5.01,000.00,025.5,024.8,000.0,034.0,027.2,029.0,0000.0,0010.35,0005.39,0004.58
2024-05-12 17:20:00,SystemResetWarning,0825.9,5.01,000.00,025.5,024.8,000.0,034.0,027.2,027.1,0000.0,0009.99,0005.33,0004.57
2024-05-12 17:21:00,SystemResetWarning,0825.9,5.00,000.00,025.5,024.8,000.0,034.0,027.2,026.2,0000.0,0010.17,0005.31,0004.55
2024-05-12 17:22:00,SystemResetWarning,0825.8,5.00,000.00,025.5,024.8,000.0,034.0,027.2,027.2,0000.0,0010.31,0005.26,0004.52
2024-05-12 17:23:00,SystemResetWarning,0825.8,5.00,000.00,025.5,024.8,000.0,034.0,027.2,027.9,0000.0,0010.31,0005.25,0004.49
2024-05-12 17:24:00,SystemResetWarning,0825.8,5.00,000.00,025.5,024.8,000.0,034.0,027.2,026.4,0000.0,0009.62,0005.20,0004.47
2024-05-12 17:25:00,SystemResetWarning,0825.8,5.00,000.00,025.5,024.8,000.0,034.0,027.2,026.3,0000.0,0010.15,0005.21,0004.46
2024-05-12 17:26:00,SystemResetWarning,0825.8,5.00,000.00,025.4,024.8,000.0,034.0,027.1,026.1,0000.0,0009.94,0005.21,0004.43
2024-05-12 17:27:00,SystemResetWarning,0825.7,5.01,000.00,025.4,024.8,000.0,034.0,027.1,026.9,0000.0,0009.92,0005.20,0004.41
2024-05-12 17:28:00,SystemResetWarning,0825.8,5.00,000.00,025.4,024.7,000.0,034.0,027.1,026.0,0000.0,0009.88,0005.20,0004.39
2024-05-12 17:29:00,SystemResetWarning,0825.7,5.00,000.00,025.4,024.7,000.0,033.9,027.1,026.4,0000.0,0009.85,0005.15,0004.36
2024-05-12 17:30:00,SystemResetWarning,0825.8,5.00,000.00,025.4,024.7,000.0,033.9,027.1,027.6,0000.0,0010.28,0005.13,0004.34
2024-05-12 17:31:00,SystemResetWarning,0825.7,4.99,000.00,025.4,024.7,000.0,033.9,027.2,026.8,0000.0,0010.51,0005.09,0004.31
2024-05-12 17:32:00,SystemResetWarning,0825.8,4.99,000.00,025.4,024.7,000.0,033.9,027.1,027.3,0000.0,0010.31,0005.09,0004.30
2024-05-12 17:33:00,SystemResetWarning,0825.8,5.00,000.00,025.4,024.7,000.0,033.9,027.1,027.4,0000.0,0010.08,0005.07,0004.28
2024-05-12 17:34:00,SystemResetWarning,0825.8,5.01,000.00,025.4,024.7,000.0,033.9,027.1,027.5,0000.0,0010.24,0005.07,0004.28
2024-05-12 17:35:00,SystemResetWarning,0825.8,5.01,000.00,025.4,024.7,000.0,033.9,027.2,028.2,0000.0,0010.33,0005.08,0004.26
2024-05-12 17:36:00,SystemResetWarning,0825.8,5.00,000.00,025.4,024.7,000.0,033.9,027.2,027.5,0000.0,0009.69,0005.04,0004.23
2024-05-12 17:37:00,SystemResetWarning,0825.8,4.99,000.00,025.4,024.7,000.0,033.9,027.2,026.2,0000.0,0009.84,0005.00,0004.21
2024-05-12 17:38:00,SystemResetWarning,0825.8,5.00,000.00,025.4,024.7,000.0,033.9,027.2,026.7,0000.0,0010.31,0004.98,0004.20
2024-05-12 17:39:00,SystemResetWarning,0825.8,4.99,000.00,025.4,024.7,000.0,033.9,027.1,027.7,0000.0,0010.42,0004.93,0004.17
2024-05-12 17:40:00,SystemResetWarning,0825.8,5.00,000.00,025.4,024.7,000.0,033.9,027.1,027.0,0000.0,0010.97,0004.92,0004.15
2024-05-12 17:41:00,SystemResetWarning,0825.8,5.01,000.00,025.4,024.7,000.0,033.9,027.1,026.9,0000.0,0010.77,0004.93,0004.14
2024-05-12 17:42:00,SystemResetWarning,0825.8,5.00,000.00,025.4,024.7,000.0,033.9,027.1,025.8,0000.0,0010.50,0004.95,0004.12
2024-05-12 17:43:00,SystemResetWarning,0825.7,4.99,000.00,025.4,024.7,000.0,033.9,027.1,026.1,0000.0,0010.46,0004.88,0004.09
2024-05-12 17:44:00,SystemResetWarning,0825.8,5.01,000.00,025.4,024.7,000.0,033.9,027.1,026.7,0000.0,0010.81,0004.83,0004.07
2024-05-12 17:45:00,SystemResetWarning,0825.7,5.01,000.00,025.4,024.7,000.0,033.9,027.1,026.9,0000.0,0010.57,0004.77,0004.04
2024-05-12 17:46:00,SystemResetWarning,0825.7,5.01,000.00,025.4,024.7,000.0,033.9,027.1,026.0,0000.0,0010.49,0004.74,0004.03
2024-05-12 17:47:00,SystemResetWarning,0825.7,5.00,000.00,025.4,024.7,000.0,033.9,027.1,027.0,0000.0,0010.36,0004.71,0004.03
2024-05-12 17:48:00,SystemResetWarning,0825.7,4.99,000.00,025.4,024.7,000.0,033.9,027.2,027.9,0000.0,0010.11,0004.68,0004.01
2024-05-12 17:49:00,SystemResetWarning,0825.7,4.99,000.00,025.4,024.7,000.0,033.9,027.2,027.3,0000.0,0009.63,0004.66,0003.97
2024-05-12 17:50:00,SystemResetWarning,0825.6,5.00,000.00,025.4,024.7,000.0,033.9,027.2,026.7,0000.0,0010.28,0004.63,0003.94
2024-05-12 17:51:00,SystemResetWarning,0825.6,5.00,000.00,025.4,024.8,000.0,033.9,027.2,026.9,0000.0,0010.00,0004.60,0003.93
2024-05-12 17:52:00,SystemResetWarning,0825.6,5.00,000.00,025.4,024.8,000.0,033.9,027.2,026.1,0000.0,0010.17,0004.59,0003.92
2024-05-12 17:53:00,SystemResetWarning,0825.6,5.01,000.00,025.4,024.8,000.0,033.9,027.2,026.2,0000.0,0010.24,0004.58,0003.91
2024-05-12 17:54:00,SystemResetWarning,0825.6,4.99,000.00,025.4,024.8,000.0,033.9,027.2,025.9,0000.0,0010.24,0004.58,0003.90
2024-05-12 17:55:00,SystemResetWarning,0825.6,5.00,000.00,025.4,024.8,000.0,033.9,027.2,026.5,0000.0,0009.90,0004.63,0003.90
2024-05-12 17:56:00,SystemResetWarning,0825.6,5.00,000.00,025.4,024.8,000.0,033.9,027.2,026.7,0000.0,0009.93,0004.67,0003.91
2024-05-12 17:57:00,SystemResetWarning,0825.5,4.99,000.00,025.4,024.8,000.0,033.9,027.2,027.0,0000.0,0009.98,0004.70,0003.90
2024-05-12 17:58:00,SystemResetWarning,0825.5,5.01,000.00,025.4,024.8,000.0,033.9,027.2,027.4,0000.0,0010.13,0004.74,0003.88
2024-05-12 17:59:00,SystemResetWarning,0825.4,5.01,000.00,025.4,024.8,000.0,033.9,027.2,027.3,0000.0,0010.21,0004.77,0003.87
